Regional Weather Roundup
Issued by NWS Sterling, VA

Home | Current Version | Previous Version | Graphics & Text | Print | Product List | Glossary On
Versions: 1 2 3 4 5 6 7 8 9 10 11 12 13 14 15 16 17 18 19 20 21 22 23 24 25 26 27
000
ASUS41 KLWX 291810
RWRLWX

REGIONAL WEATHER ROUNDUP
NATIONAL WEATHER SERVICE BALTIMORE MD/WASHINGTON DC
200 PM EDT SUN MAY 29 2016

Note: "FAIR" indicates few or no clouds below 12,000 feet
with no significant weather and/or obstructions to visibility.
 TC=TEMPERATURE CELSIUS

 * =Non NWS site. Station does not report precipitation (e.g. rain,
    snow, etc.), thunder, or fog.

DCZ001-MDZ009-015-VAZ040>042-051-053>054-291900-
WASHINGTON METRO

CITY           SKY/WX    TMP DP  RH WIND       PRES   REMARKS
WASHINGTON NAT NOT AVBL
DULLES         PTSUNNY   84  58  40 SE5       30.10F
ANDREWS AFB    CLOUDY    81  66  60 E9        30.10F
FT BELVOIR     FAIR      83  64  52 VRB3      30.10F
QUANTICO       PTSUNNY   81  69  67 SW5       30.11F
COLLEGE PARK*  CLOUDY    82  63  51 SE3       30.09F
LEESBURG*      FAIR      86  63  45 S12G17    30.11F
MANASSAS*      MOSUNNY   84  64  51 SE12      30.10F

$$

MDZ006>007-011-014-291900-
BALTIMORE METRO

CITY           SKY/WX    TMP DP  RH WIND       PRES   REMARKS
BWI AIRPORT    CLOUDY    83  61  47 SE10      30.10F
MD SCIENCE CTR   N/A     82  60  47 MISG      30.11F
MARTIN STATE   MOSUNNY   84  70  61 SE6       30.13F
ANNAPOLIS      MOSUNNY   76  68  76 SE10      30.11F
FORT MEADE*    CLOUDY    81  63  54 SE7       30.12F

$$

MDZ012-015-019>023-291900-
MARYLAND EASTERN SHORE

CITY           SKY/WX    TMP DP  RH WIND       PRES   REMARKS
OCEAN CITY     PTSUNNY   75  70  84 S8        30.14F
SALISBURY      CLOUDY    82  71  69 SE14      30.11F
BAY BRIDGE AP* PTSUNNY   81  68  65 W8        30.11F
CAMBRIDGE*     PTSUNNY   79  68  69 S6        30.10F
EASTON*        PTSUNNY   84  75  74 SW5       30.15F HX  92

$$

MDZ017>025-291900-
SOUTHERN MARYLAND

CITY           SKY/WX    TMP DP  RH WIND       PRES   REMARKS
PATUXENT RIVER PTSUNNY   78  69  73 SE10      30.11F
ST INIGOES     CLOUDY    79  71  76 E13       30.10F
LEONARDTOWN*   CLOUDY    79  68  69 E5        30.12F

$$

MDZ003>005-291900-
NORTH CENTRAL MARYLAND

CITY           SKY/WX    TMP DP  RH WIND       PRES   REMARKS
FREDERICK*     MOSUNNY   84  66  54 CALM      30.12F
HAGERSTOWN APT SUNNY     83  57  41 CALM      30.11F
WESTMINSTER*   MOSUNNY   88  79  74 S7        30.12F HX 102

$$

MDZ501>502-291900-
WESTERN MARYLAND

CITY           SKY/WX    TMP DP  RH WIND       PRES   REMARKS
OAKLAND*       CLOUDY    72  61  68 N5        30.20F
CUMBERLAND*    CLOUDY    81  64  57 CALM      30.13F

$$

VAZ025>031-291900-
SHENANDOAH VALLEY

CITY           SKY/WX    TMP DP  RH WIND       PRES   REMARKS
WINCHESTER*    FAIR      81  61  50 SE6       30.12S
FRONT ROYAL*   FAIR      81  64  57 CALM      30.11S
LURAY*         FAIR      79  61  53 SW3       30.13S
NEW MARKET*    CLOUDY    76  65  67 CALM      30.12S
STAUNTON*      LGT RAIN  74  64  70 SW5       30.17S
WAYNESBORO*    CLOUDY    73  63  69 W3        30.17S

$$

WVZ021-048>050-054>055-291900-
EASTERN WEST VIRGINIA PANHANDLE

CITY           SKY/WX    TMP DP  RH WIND       PRES   REMARKS
MARTINSBURG    FAIR      83  56  39 S6        30.10F
PETERSBURG*    CLOUDY    79  69  70 CALM      30.13S

$$

VAZ036>039-050-291900-
CENTRAL FOOTHILLS

CITY           SKY/WX    TMP DP  RH WIND       PRES   REMARKS
CHARLOTTESVILL LGT RAIN  80  64  58 CALM      30.12F
CULPEPER*      FAIR      84  64  50 SE5       30.11F
ORANGE*        CLOUDY    82  61  47 SW3       30.13S
GORDONSVILLE*  CLOUDY    81  64  56 SW3       30.11F
WARRENTON*     FAIR      85  55  36 SW5       30.10F

$$

VAZ055>057-291900-
NORTH AND CENTRAL PIEDMONT

CITY           SKY/WX    TMP DP  RH WIND       PRES   REMARKS
FREDERICKSBRG* FAIR      82  67  60 E7        30.09F
STAFFORD*      PTSUNNY   82  64  54 E6        30.14F

$$

NCZ024-NYZ072-PAZ021-071-VAZ022-071-291900-
OTHER REGIONAL OBSERVATIONS

CITY           SKY/WX    TMP DP  RH WIND       PRES   REMARKS
NEW YORK CITY  SUNNY     85  61  44 SW8       30.13F
PHILADELPHIA   PTSUNNY   86  49  27 S9        30.10F
PITTSBURGH     CLOUDY    80  66  62 SE5       30.11F
ROANOKE        CLOUDY    77  62  59 VRB5      30.17F
RICHMOND       CLOUDY    79  69  71 SE7       30.09F
RALEIGH        LGT RAIN  70  69  97 VRB5      30.08F

$$

ANZ530>537-291900-
MARINE OBSERVATIONS

STATION/POSITION TIME  TEMP    WIND        PRES
                       AIR SEA DIR/SP/G
                 (UTC) (F)     (DEG/KT/KT) (MB)
THOMAS PT LIGHT  1800   73 69  180/  6/  7 1020.9F
BALT KEY BRIDGE  1700   76     110/ 12/ 13 1020.0F
COVE POINT       1700   71     180/  6/  7 1020.8F
LEWISETTA        1700   72 71  100/ 10/ 12 1019.3F
SOLOMONS ISLAND  1700   73 66   70/  8/ 10   N/A
PINEY POINT      1700          130/  8/  9   N/A

$$





USA.gov is the U.S. government's official web portal to all federal, state and local government web resources and services.